Tracking 27124 objects as of 31-Mar-2023
HD Live streaming from Space Station
objects crossing your sky now

COSMOS 397 DEB

Track COSMOS 397 DEB now!
10-day predictions


NORAD ID: 6844
Int'l Code: 1971-015CL
Perigee: 543.5 km
Apogee: 1,457.8 km
Inclination: 65.9 °
Period: 105.0 minutes
Semi major axis: 7371 km
RCS: 0.0356 m2 (small)
Launch date: February 25, 1971
Source: Commonwealth of Independent States (former USSR) (CIS)
Launch site: TYURATAM MISSILE AND SPACE COMPLEX (TTMTR)

Note: This is SATELLITE DEBRIS
Your satellite tracking list
Your tracking list is empty




NASA's NSSDC Master Catalog

Two Line Element Set (TLE):
1 06844U 71015CL  23089.55261030  .00003268  00000-0  91107-3 0  9990
2 06844  65.8984 266.4534 0620142 354.0016   5.3847 13.71678866458634
Source of the keplerian elements: AFSPC